Location: Wayah Bald
(35.1806°N, 83.5603°W)
Time: 20:02:16
(UTC-04:00)

Daily predictions for brighter satellites

Satellite Brightness Start Highest point End
(mag) Time Altitude Azimuth Time Altitude Azimuth Time Altitude Azimuth
H-2A R/B 4.2 20:06:55 10° ESE 20:09:48 20° ENE 20:12:43 10° NNE
ASTRO F (AKARI) 4.2 20:06:58 10° NNE 20:10:07 86° ESE 20:13:19 10° SSW
Cosmos 1680 Rocket 4.1 20:05:16 10° NNW 20:10:28 63° WSW 20:15:36 10° S
Cosmos 1953 4.3 20:10:32 10° E 20:11:09 10° E 20:11:44 10° ENE
FREGAT/IRIS 2.8 20:10:05 10° SSE 20:13:03 49° ENE 20:16:02 10° N
SL-27 R/B 4.1 20:10:55 10° NNE 20:13:25 18° ENE 20:15:56 10° ESE
Cosmos 2058 Rocket 4.4 20:09:39 10° SSW 20:13:57 47° W 20:18:19 10° N
Meteor 1-24 Rocket 4.2 20:09:18 10° N 20:14:23 37° ENE 20:19:35 10° SE
SeaSat 1 2.8 20:09:52 10° SE 20:14:32 45° ENE 20:19:14 10° N
Cosmos 2098 4.4 20:13:50 10° S 20:17:24 87° W 20:20:27 10° N
Cosmos 1707 2.7 20:13:37 10° N 20:17:30 67° E 20:21:21 10° SSE
Cosmos 2298 Rocket 4.1 20:13:45 10° SSW 20:19:02 87° WNW 20:24:24 10° NNE
OE (NEXTSAT) 4.4 20:18:20 10° WSW 20:21:56 85° NNW 20:25:32 10° NE
Cosmos 2082 Rocket 4.1 20:21:27 10° NNE 20:23:23 12° NE 20:25:18 10° ENE
Meteor 2-5 Rocket 3.8 20:19:04 10° N 20:24:49 82° E 20:30:40 10° S
Cosmos 1766 3.4 20:27:52 10° S 20:31:37 51° E 20:35:23 10° NNE
Cosmos 1934 Rocket 3.9 20:27:12 10° S 20:33:17 66° E 20:39:19 10° NNE
COSMOS 2406 3.3 20:28:28 10° NNW 20:34:14 82° WSW 20:39:55 10° SSE
Tiangong 1 2.1 20:35:44 10° NW 20:38:24 30° NNE 20:40:10 16° ENE
Okean 3 Rocket 4.4 20:36:21 10° NNE 20:40:12 29° ENE 20:44:02 10° SE
Cosmos 1844 4.3 20:37:01 10° SSW 20:42:42 62° WNW 20:48:27 10° NNE
RESURS DK-1 2.9 20:38:57 10° N 20:42:50 39° ENE 20:45:49 15° SE
Cosmos 1867 4.3 20:39:18 10° S 20:43:59 30° ESE 20:48:41 10° NE
USA 186 3.4 20:50:05 12° NE 20:50:05 12° NE 20:50:27 10° NNE
GPS 2-05 Rocket1 3.9 20:49:43 10° SW 20:52:55 31° SSE 20:54:05 25° ESE
Cosmos 1812 Rocket 4.4 20:52:08 10° SSW 20:56:28 55° W 21:00:48 10° N
GP-B 3.8 20:58:25 23° ESE 21:00:14 31° E 21:04:08 10° NNE
Cosmos 2344 4.0 20:52:45 10° SW 21:00:22 67° NW 21:08:42 10° NNE
Spot 2 Rocket 3.4 20:55:32 10° SSE 21:00:37 81° ENE 21:05:45 10° N
CZ-2D R/B 3.2 20:57:16 11° SSE 21:00:57 62° ENE 21:04:48 10° N
USA 215 3.2 20:55:40 10° NE 21:02:08 63° SE 21:08:34 10° SSW
Resurs 01 Rocket 1.6 20:58:32 10° SSE 21:02:57 87° W 21:07:23 10° NNW
Cosmos 1674 4.4 21:01:17 10° NNE 21:02:56 17° NE 21:02:56 17° NE
Cosmos 1805 3.1 21:02:54 10° S 21:06:46 71° E 21:10:39 10° NNE
OAO 1 4.5 21:05:38 10° W 21:11:08 89° SSW 21:13:51 31° E
Yuri Rocket 4.0 21:07:50 10° WSW 21:11:33 31° S 21:12:48 26° SSE
Cosmos 1076 Rocket 3.8 21:07:35 10° N 21:11:37 41° E 21:12:27 37° ESE
Cosmos 1605 Rocket 4.0 21:06:45 10° S 21:12:59 85° W 21:19:21 10° N
Cosmos 2100 Rocket 4.4 21:07:30 10° SSE 21:13:13 38° E 21:19:01 10° NNE
ALOS 3.6 21:09:11 10° S 21:13:35 41° W 21:18:00 10° NNW
Delta 2 Rocket 3.4 21:10:05 10° W 21:14:44 71° SSW 21:16:05 41° ESE
Cosmos 1766 Rocket 4.2 21:12:02 10° NNE 21:16:04 34° ENE 21:16:04 34° ENE
Envisat 3.4 21:17:16 34° ESE 21:18:37 42° ENE 21:23:23 10° N
SAR-Lupe-4 3.4 21:20:26 48° SSE 21:21:20 78° ENE 21:24:55 10° N
CZ-4B DEB 4.2 21:22:45 25° NNE 21:22:45 25° NNE 21:24:20 10° N
Helios 1B rocket 2.3 21:18:51 10° NNE 21:23:00 89° ESE 21:27:06 10° SSW
In-Cosmos 22 4.1 21:18:23 10° N 21:23:41 79° W 21:28:56 10° S
Helios 1A 2.8 21:23:52 37° SSE 21:25:28 79° ENE 21:29:39 10° N
Cosmos 1125 Rocket 3.3 21:20:27 10° SSW 21:25:37 83° ESE 21:30:51 10° NNE
Aurora 2 Rocket 4.4 21:21:54 10° SW 21:26:29 21° S 21:27:02 21° SSE
Cosmos 1802 Rocket 4.2 21:31:04 40° ESE 21:31:52 42° E 21:37:35 10° NNE
Cosmos-2242 3.6 21:33:21 39° NE 21:33:21 39° NE 21:36:18 10° NNE
Cosmos 1048 Rocket 4.1 21:28:11 10° N 21:33:08 47° ENE 21:33:24 47° E
Cosmos 2278 Rocket 3.6 21:29:36 10° SW 21:34:54 40° WNW 21:40:13 10° N
Cosmos 1833 Rocket 3.1 21:31:25 10° N 21:36:43 41° ENE 21:36:55 41° ENE
Cosmos 1758 4.0 21:33:41 10° SSW 21:37:32 53° W 21:41:27 10° N
Spot 1 4.3 21:35:29 29° S 21:37:48 75° WSW 21:42:36 10° NNW
Lacrosse 5 3.8 21:36:16 10° W 21:40:36 28° NW 21:44:58 10° NNE
SAR-Lupe-1 4.3 21:40:50 65° WSW 21:40:53 65° WSW 21:44:27 10° NNW
Cosmos 2061 Rocket 4.0 21:38:33 30° SSE 21:41:37 58° E 21:47:54 10° NNE
ERS-1 Rocket 3.8 21:43:28 34° NE 21:43:28 34° NE 21:47:02 10° N
Cosmos 1939 Rocket 3.6 21:48:08 46° N 21:48:08 46° N 21:51:12 10° N
Cosmos 1953 3.4 21:43:11 10° SSW 21:47:05 44° W 21:50:59 10° N
Cosmos 2297 3.9 21:42:35 10° SSW 21:48:15 70° WNW 21:54:00 10° NNE
Meteor 1-4 Rocket 4.0 21:45:35 10° SW 21:48:47 35° WNW 21:52:00 10° N
Timation 2 Rocket 4.1 21:43:34 10° NNW 21:49:40 50° ENE 21:49:54 49° ENE
Meteor 1-29 4.3 21:49:44 10° N 21:53:00 39° WNW 21:53:40 35° WSW
H-2A R/B 4.2 21:48:31 10° WSW 21:54:48 65° S 23:44:27 10° ESE
ATLAS 5 CENTAUR R/B 2.4 21:50:17 10° SSW 21:53:18 42° SSW 21:53:18 42° SSW
Cosmos 1818 3.4 21:49:49 10° NNW 21:55:17 80° ENE 21:55:28 78° E
Cosmos 1269 Rocket 4.0 22:02:03 10° NNW 22:07:14 78° W 22:07:14 78° W
Cosmos 2082 Rocket 2.1 22:02:34 10° NNW 22:08:04 83° N 22:08:04 83° N
Cosmos 1459 Rocket 4.1 22:05:20 16° SSW 22:10:28 75° W 22:16:41 10° N
Cosmos 1408 Rocket 4.4 22:06:32 10° NNW 22:10:23 50° WNW 22:10:23 50° WNW
Lacrosse 5 rocket 4.0 22:10:25 10° N 22:10:52 12° N 22:10:52 12° N
Cosmos 2173 Rocket 4.1 22:10:13 26° SSW 22:13:47 72° W 22:20:02 10° N
H-2A R/B 4.4 22:55:19 16° N 22:55:19 16° N 22:56:25 10° N
CZ-3 Stage 3 3.7 22:48:11 10° W 23:03:53 49° WSW 23:03:53 49° WSW
USA 267 4.4 23:17:25 37° NNW 23:17:25 37° NNW 23:21:19 10° NW
